Fairmont, MN

9:21 PM CST on February 10, 2016 (GMT -0600)
Fairmont Municipal

Weather History for KFRM - May, 2013

Change the Weather History Date:

Monday, May 20, 2013

  Actual Average (KEST) Record (KEST)
Temperature  
Mean Temperature 65 °F 60 °F  
Max Temperature 71 °F 72 °F - ()
Min Temperature 59 °F 48 °F - ()
Degree Days  
Heating Degree Days 0 7  
Month to date heating degree days 184  
Since 1 July heating degree days 7645  
Cooling Degree Days 0 1  
Month to date cooling degree days 14  
Year to date cooling degree days 16  
Growing Degree Days 15 (Base 50)    
Moisture  
Dew Point 56 °F    
Average Humidity 76    
Maximum Humidity 88    
Minimum Humidity 50    
Precipitation  
Precipitation 0.16 in 0.11 in - ()
Month to date precipitation 2.49  
Sea Level Pressure  
Sea Level Pressure 29.55 in    
Wind  
Wind Speed 15 mph (South)    
Max Wind Speed 24 mph    
Max Gust Speed 31 mph    
Visibility 10 miles    
Events Thunderstorm    
T = Trace of Precipitation, MM = Missing Value Source: NWS Daily Summary

Daily Weather History Graph

Daily Weather History Graph

Search for Another Location

Airport or City:

Trip Planner

Search our weather history database for the weather conditions in past years. The results will help you decide how hot, cold, wet, or windy it might be!

Date:

Astronomy

May. 20, 2013 Rise Set
Actual Time 5:47 AM CDT 8:41 PM CDT
Civil Twilight 5:13 AM CDT 9:15 PM CDT
Nautical Twilight 4:30 AM CDT 9:58 PM CDT
Astronomical Twilight 3:40 AM CDT 10:49 PM CDT
Moon 3:41 PM CDT (5/20) 2:52 AM CDT (5/20)
Length of Visible Light 16h 01m
Length of Day
14h 54m
Waxing Gibbous, 75% of the Moon is Illuminated
May 20
Waxing Gibbous
May 24
Full
May 31
Last Quarter
Jun 8
New
Jun 16
First Quarter

Hourly Weather History & Observations

Time (CDT) Temp. Dew Point Humidity Pressure Visibility Wind Dir Wind Speed Gust Speed Precip Events Conditions
12:15 AM 62.6 °F 59.0 °F 88% 29.59 in 10.0 mi SE 12.7 mph - N/A   Mostly Cloudy
12:35 AM 64.4 °F 57.2 °F 77% 29.57 in 10.0 mi SSE 13.8 mph - N/A   Mostly Cloudy
12:55 AM 62.6 °F 59.0 °F 88% 29.54 in 10.0 mi SE 16.1 mph 23.0 mph N/A   Mostly Cloudy
1:15 AM 62.6 °F 57.2 °F 82% 29.55 in 10.0 mi SSE 19.6 mph 25.3 mph N/A   Overcast
1:35 AM 62.6 °F 57.2 °F 82% 29.54 in 10.0 mi SSE 18.4 mph 25.3 mph N/A   Overcast
1:55 AM 62.6 °F 57.2 °F 82% 29.53 in 10.0 mi SE 18.4 mph - N/A   Overcast
2:15 AM 62.6 °F 57.2 °F 82% 29.52 in 10.0 mi SE 15.0 mph 18.4 mph N/A   Overcast
2:35 AM 62.6 °F 57.2 °F 82% 29.52 in 10.0 mi SE 13.8 mph - N/A   Overcast
3:15 AM 62.6 °F 57.2 °F 82% 29.50 in 10.0 mi SSE 16.1 mph - N/A   Overcast
3:35 AM 60.8 °F 57.2 °F 88% 29.51 in 10.0 mi South 17.3 mph - N/A   Overcast
3:55 AM 60.8 °F 57.2 °F 88% 29.52 in 10.0 mi South 20.7 mph 25.3 mph N/A   Overcast
4:15 AM 60.8 °F 57.2 °F 88% 29.52 in 10.0 mi South 18.4 mph 24.2 mph N/A   Overcast
4:35 AM 60.8 °F 55.4 °F 82% 29.51 in 10.0 mi South 15.0 mph - N/A   Mostly Cloudy
4:55 AM 60.8 °F 55.4 °F 82% 29.52 in 10.0 mi South 13.8 mph - N/A   Overcast
5:15 AM 60.8 °F 55.4 °F 82% 29.52 in 10.0 mi South 16.1 mph - N/A   Mostly Cloudy
5:35 AM 60.8 °F 55.4 °F 82% 29.53 in 10.0 mi South 18.4 mph - N/A   Mostly Cloudy
5:55 AM 59.0 °F 55.4 °F 88% 29.54 in 10.0 mi South 13.8 mph - N/A   Overcast
6:15 AM 59.0 °F 55.4 °F 88% 29.54 in 10.0 mi South 16.1 mph - N/A   Mostly Cloudy
6:35 AM 59.0 °F 53.6 °F 82% 29.55 in 10.0 mi South 12.7 mph - N/A   Scattered Clouds
6:55 AM 59.0 °F 55.4 °F 88% 29.55 in 10.0 mi South 11.5 mph - N/A   Clear
7:15 AM 60.8 °F 55.4 °F 82% 29.54 in 10.0 mi South 10.4 mph - N/A   Clear
7:35 AM 60.8 °F 55.4 °F 82% 29.55 in 10.0 mi South 15.0 mph - N/A   Partly Cloudy
7:55 AM 60.8 °F 55.4 °F 82% 29.55 in 10.0 mi South 17.3 mph - N/A   Mostly Cloudy
8:15 AM 60.8 °F 55.4 °F 82% 29.54 in 10.0 mi South 12.7 mph - N/A   Overcast
8:35 AM 60.8 °F 55.4 °F 82% 29.54 in 10.0 mi South 15.0 mph - N/A   Overcast
9:15 AM 60.8 °F 55.4 °F 82% 29.55 in 10.0 mi SSW 15.0 mph - N/A   Overcast
9:35 AM 60.8 °F 55.4 °F 82% 29.54 in 10.0 mi South 13.8 mph - N/A   Overcast
9:55 AM 60.8 °F 55.4 °F 82% 29.54 in 10.0 mi SSW 17.3 mph - N/A   Overcast
10:35 AM 60.8 °F 55.4 °F 82% 29.54 in 7.0 mi South 13.8 mph - N/A   Overcast
10:55 AM 62.6 °F 57.2 °F 82% 29.54 in 8.0 mi South 19.6 mph - N/A   Overcast
11:15 AM 62.6 °F 57.2 °F 82% 29.55 in 9.0 mi South 17.3 mph 20.7 mph N/A   Mostly Cloudy
11:35 AM 62.6 °F 57.2 °F 82% 29.55 in 7.0 mi SSW 16.1 mph 21.9 mph N/A   Overcast
11:55 AM 62.6 °F 55.4 °F 77% 29.56 in 9.0 mi SSW 20.7 mph 27.6 mph N/A   Overcast
12:15 PM 62.6 °F 55.4 °F 77% 29.57 in 7.0 mi SW 17.3 mph 24.2 mph N/A   Overcast
12:35 PM 62.6 °F 55.4 °F 77% 29.57 in 10.0 mi SW 17.3 mph 20.7 mph N/A   Overcast
1:15 PM 64.4 °F 55.4 °F 73% 29.58 in 10.0 mi SSW 16.1 mph 23.0 mph N/A   Overcast
1:55 PM 66.2 °F 55.4 °F 68% 29.59 in 10.0 mi South 17.3 mph - N/A   Overcast
2:15 PM 66.2 °F 53.6 °F 64% 29.59 in 10.0 mi SSW 18.4 mph 24.2 mph N/A   Overcast
2:35 PM 69.8 °F 53.6 °F 56% 29.58 in 10.0 mi SSW 17.3 mph 28.8 mph N/A   Mostly Cloudy
2:55 PM 69.8 °F 53.6 °F 56% 29.59 in 10.0 mi SSW 20.7 mph 26.5 mph N/A   Mostly Cloudy
3:15 PM 69.8 °F 53.6 °F 56% 29.59 in 10.0 mi SSW 20.7 mph 26.5 mph N/A   Mostly Cloudy
3:35 PM 71.6 °F 53.6 °F 53% 29.58 in 10.0 mi SSW 20.7 mph 24.2 mph N/A   Mostly Cloudy
3:55 PM 71.6 °F 51.8 °F 50% 29.58 in 10.0 mi SSW 23.0 mph 28.8 mph N/A   Partly Cloudy
4:15 PM 71.6 °F 53.6 °F 53% 29.58 in 10.0 mi SSW 19.6 mph 25.3 mph N/A   Mostly Cloudy
4:35 PM 69.8 °F 53.6 °F 56% 29.58 in 10.0 mi South 21.9 mph 27.6 mph N/A   Overcast
4:55 PM 69.8 °F 53.6 °F 56% 29.57 in 10.0 mi South 20.7 mph 27.6 mph N/A   Overcast
5:15 PM 69.8 °F 51.8 °F 53% 29.58 in 10.0 mi South 24.2 mph 31.1 mph N/A   Overcast
5:35 PM 69.8 °F 53.6 °F 56% 29.57 in 10.0 mi South 20.7 mph 24.2 mph N/A   Overcast
5:55 PM 69.8 °F 53.6 °F 56% 29.57 in 10.0 mi South 17.3 mph - N/A   Overcast
6:15 PM 66.2 °F 55.4 °F 68% 29.57 in 10.0 mi SSW 11.5 mph - N/A   Overcast
6:35 PM 68.0 °F 55.4 °F 64% 29.56 in 10.0 mi South 15.0 mph 18.4 mph N/A   Mostly Cloudy
6:55 PM 64.4 °F 57.2 °F 77% 29.55 in 10.0 mi SSW 6.9 mph - 0.01 in   Mostly Cloudy
7:15 PM 64.4 °F 57.2 °F 77% 29.55 in 10.0 mi SSW 5.8 mph - N/A   Overcast
7:35 PM 64.4 °F 57.2 °F 77% 29.54 in 9.0 mi SSW 6.9 mph - 0.08 in   Overcast
7:55 PM 62.6 °F 57.2 °F 82% 29.54 in 9.0 mi SSW 8.1 mph - 0.15 in Thunderstorm Mostly Cloudy
8:15 PM 64.4 °F 57.2 °F 77% 29.53 in 10.0 mi SE 8.1 mph - N/A Thunderstorm Scattered Clouds
8:35 PM 64.4 °F 57.2 °F 77% 29.54 in 10.0 mi SE 8.1 mph - N/A   Mostly Cloudy
9:15 PM 62.6 °F 57.2 °F 82% 29.55 in 10.0 mi SSE 11.5 mph - N/A   Mostly Cloudy
9:35 PM 62.6 °F 57.2 °F 82% 29.55 in 10.0 mi SSE 10.4 mph - N/A   Scattered Clouds
9:55 PM 62.6 °F 57.2 °F 82% 29.55 in 10.0 mi SSE 10.4 mph - N/A   Mostly Cloudy
10:15 PM 62.6 °F 57.2 °F 82% 29.54 in 10.0 mi SSE 11.5 mph - N/A   Overcast
10:35 PM 60.8 °F 57.2 °F 88% 29.53 in 10.0 mi South 9.2 mph - N/A   Mostly Cloudy
10:55 PM 60.8 °F 55.4 °F 82% 29.52 in 10.0 mi SSE 8.1 mph - N/A   Clear
11:15 PM 60.8 °F 55.4 °F 82% 29.52 in 10.0 mi SSE 9.2 mph - N/A   Clear
11:35 PM 60.8 °F 55.4 °F 82% 29.52 in 10.0 mi SSE 9.2 mph - N/A   Clear
11:55 PM 60.8 °F 55.4 °F 82% 29.53 in 10.0 mi SSE 9.2 mph - N/A   Partly Cloudy